User: anonymous   Login
Location: Focicchia
(42.2496°N, 9.2935°E)
Time: 17:06:30
(UTC+00:00)
Language:

CZ-2D R/B - Orbit

View from above orbital plane
View from above orbital plane
View from above satellite
View from above satellite

Ground track
Ground track

The orbit data is extracted from the following two-line orbital elements,

1 37932U 11068C   20228.46375730 -.00000019  00000-0  11154-4 0  9996
2 37932  98.6579 163.5947 0036071 294.9266 172.4420 14.22041245453489
Epoch (UTC): 15 August 2020 11:07:48
Eccentricity: 0.0036071
inclination: 98.6579°
perigee height: 792 km
apogee height: 844 km
right ascension of ascending node: 163.5947°
argument of perigee: 294.9266°
revolutions per day: 14.22041245
mean anomaly at epoch: 172.4420°
orbit number at epoch: 45348

The dashed part of the orbit path shows where the satellite is in the earth's shadow,  

DLR